TimeEDT,TemperatureF,Dew PointF,Humidity,Sea Level PressureIn,VisibilityMPH,Wind Direction,Wind SpeedMPH,Gust SpeedMPH,PrecipitationIn,Events,Conditions,WindDirDegrees,DateUTC
12:15 AM,31.8,27.5,84,30.24,10.0,WSW,4.6,-,N/A,,Clear,240,2012-10-11 04:15:00
12:35 AM,31.5,28.8,90,30.24,10.0,North,-9999.0,-,N/A,,Clear,0,2012-10-11 04:35:00
12:55 AM,30.9,28.4,90,30.24,10.0,North,-9999.0,-,N/A,,Clear,0,2012-10-11 04:55:00
1:15 AM,30.0,27.3,90,30.24,10.0,Calm,Calm,-,N/A,,Clear,0,2012-10-11 05:15:00
1:55 AM,30.6,27.9,90,30.23,10.0,North,-9999.0,-,N/A,,Clear,0,2012-10-11 05:55:00
2:15 AM,29.3,27.5,93,30.23,10.0,SW,5.8,-,N/A,,Clear,220,2012-10-11 06:15:00
2:35 AM,29.3,27.3,92,30.23,10.0,SSW,3.5,-,N/A,,Clear,200,2012-10-11 06:35:00
2:55 AM,29.7,27.7,92,30.24,10.0,SW,4.6,-,N/A,,Clear,220,2012-10-11 06:55:00
3:15 AM,30.7,27.7,88,30.24,10.0,Calm,Calm,-,N/A,,Clear,0,2012-10-11 07:15:00
3:55 AM,28.2,26.4,93,30.24,10.0,SW,5.8,-,N/A,,Clear,220,2012-10-11 07:55:00
4:15 AM,28.4,26.4,92,30.25,10.0,SW,3.5,-,N/A,,Clear,220,2012-10-11 08:15:00
4:35 AM,28.6,25.9,90,30.26,10.0,SW,3.5,-,N/A,,Clear,230,2012-10-11 08:35:00
4:55 AM,27.9,26.2,94,30.26,10.0,SSW,3.5,-,N/A,,Clear,210,2012-10-11 08:55:00
5:15 AM,27.3,25.7,94,30.27,10.0,South,4.6,-,N/A,,Clear,190,2012-10-11 09:15:00
5:35 AM,28.9,26.4,90,30.27,10.0,SSW,4.6,-,N/A,,Clear,210,2012-10-11 09:35:00
5:55 AM,28.6,26.8,93,30.27,10.0,Calm,Calm,-,N/A,,Clear,0,2012-10-11 09:55:00
6:15 AM,29.8,27.3,90,30.27,10.0,North,-9999.0,-,N/A,,Clear,0,2012-10-11 10:15:00
6:35 AM,27.1,25.3,93,30.29,10.0,South,3.5,-,N/A,,Clear,190,2012-10-11 10:35:00
6:55 AM,27.5,25.9,94,30.28,10.0,Calm,Calm,-,N/A,,Clear,0,2012-10-11 10:55:00
7:15 AM,28.2,26.6,94,30.29,10.0,SSE,3.5,-,N/A,,Clear,160,2012-10-11 11:15:00
7:25 AM,26.6,26.6,100,30.29,10.0,Calm,Calm,-,N/A,,Clear,0,2012-10-11 11:25:00
7:35 AM,27.9,26.2,94,30.29,10.0,South,3.5,-,N/A,,Clear,170,2012-10-11 11:35:00
7:47 AM,28.4,26.6,93,30.29,10.0,South,3.5,-,N/A,,Clear,170,2012-10-11 11:47:00
7:55 AM,28.4,26.2,92,30.29,10.0,SSE,3.5,-,N/A,,Clear,160,2012-10-11 11:55:00
8:15 AM,29.1,27.0,92,30.29,10.0,North,-9999.0,-,N/A,,Clear,0,2012-10-11 12:15:00
8:50 AM,33.8,30.2,87,30.30,10.0,SSW,4.6,-,N/A,,Clear,200,2012-10-11 12:50:00
9:47 AM,41.0,32.0,70,30.30,10.0,SSW,5.8,-,N/A,,Clear,200,2012-10-11 13:47:00
10:47 AM,48.2,32.0,54,30.30,10.0,South,8.1,-,N/A,,Clear,190,2012-10-11 14:47:00
11:51 AM,53.6,30.2,41,30.28,10.0,SW,11.5,-,N/A,,Clear,220,2012-10-11 15:51:00
12:50 PM,55.4,30.2,38,30.25,10.0,SW,11.5,-,N/A,,Clear,220,2012-10-11 16:50:00
1:58 PM,57.2,28.4,33,30.21,10.0,SW,9.2,18.4,N/A,,Clear,220,2012-10-11 17:58:00
2:50 PM,60.8,30.2,31,30.19,10.0,SW,12.7,19.6,N/A,,Clear,220,2012-10-11 18:50:00
3:55 PM,60.8,28.4,29,30.18,10.0,SSE,11.5,-,N/A,,Clear,160,2012-10-11 19:55:00
4:58 PM,60.8,28.4,29,30.17,10.0,SW,13.8,-,N/A,,Clear,230,2012-10-11 20:58:00
5:50 PM,57.2,30.2,36,30.17,10.0,SW,8.1,-,N/A,,Clear,230,2012-10-11 21:50:00
6:50 PM,69.8,33.8,27,30.16,10.0,WSW,5.8,-,N/A,,Clear,240,2012-10-11 22:50:00
9:15 PM,44.2,31.1,60,30.19,10.0,Calm,Calm,-,N/A,,Clear,0,2012-10-12 01:15:00
9:35 PM,43.2,30.9,62,30.19,10.0,SSW,5.8,-,N/A,,Clear,210,2012-10-12 01:35:00
9:55 PM,41.2,30.9,67,30.18,10.0,SSW,6.9,-,N/A,,Clear,210,2012-10-12 01:55:00
10:15 PM,41.2,31.6,69,30.19,10.0,SW,5.8,-,N/A,,Clear,230,2012-10-12 02:15:00
10:35 PM,39.7,31.5,72,30.18,10.0,SW,4.6,-,N/A,,Clear,230,2012-10-12 02:35:00
10:55 PM,40.3,32.0,72,30.19,10.0,WSW,5.8,-,N/A,,Clear,250,2012-10-12 02:55:00
11:55 PM,43.3,32.7,66,30.18,10.0,SW,5.8,-,N/A,,Clear,230,2012-10-12 03:55:00